Tracking 32579 objects as of 16-Dec-2025
HD Live streaming from Space Station
objects crossing your sky now

THOR ABLESTAR DEB

Track THOR ABLESTAR DEB now!
10-day predictions


NORAD ID: 48827
Int'l Code: 1961-015NF
Perigee: 889.4 km
Apogee: 1,409.0 km
Inclination: 68.2 °
Period: 108.2 minutes
Semi major axis: 7520 km
RCS: Unknown
Launch date: June 29, 1961
Source: United States (US)
Launch site: AIR FORCE EASTERN TEST RANGE (AFETR)

Note: This is SATELLITE DEBRIS
Your satellite tracking list
Your tracking list is empty




NASA's NSSDC Master Catalog

Two Line Element Set (TLE):
1 48827U 61015NF  25345.34763208  .00000341  00000-0  60172-3 0  9991
2 48827  68.1610 237.6673 0345457 298.0899  58.5635 13.31245176584855
Source of the keplerian elements: AFSPC